User: anonymous   Login
Location: Simi Valley
(34.2690°N, 118.7810°W)
Time: 13:10:48
(UTC-08:00)
Language:

TITAN 4B R/B - Orbit

View from above orbital plane
View from above orbital plane
View from above satellite
View from above satellite

Ground track
Ground track

The orbit data is extracted from the following two-line orbital elements,

1 28647U 05016B   14322.75319388 0.00006700  00000-0  41586-3 0    08
2 28647  56.9986 230.6762 0142602  76.7787 283.2212 15.01111189    03
Epoch (UTC): 18 November 2014 18:04:35
Eccentricity: 0.0142602
inclination: 56.9986°
perigee height: 464 km
apogee height: 662 km
right ascension of ascending node: 230.6762°
argument of perigee: 76.7787°
revolutions per day: 15.01111189
mean anomaly at epoch: 283.2212°
orbit number at epoch: 0

The dashed part of the orbit path shows where the satellite is in the earth's shadow,  

DLR